Regional Weather Roundup
Issued by NWS Midland/Odessa, TX

Skip options and go directly to product.
Home | Oldest Version | Next Version | Current Version | All | Text Only | Save Text | Print | Product List | Glossary On

Skip product version selection by date and time.   
195
ASUS44 KMAF 190902
RWRMAF
MIDLAND AREA WEATHER ROUNDUP
NATIONAL WEATHER SERVICE MIDLAND TX
400 AM CDT FRI SEP 19 2014

...IN SOUTHWEST TEXAS AND SOUTHEAST NEW MEXICO...

CITY           SKY/WX    TMP DP  RH WIND       PRES   REMARKS
ALPINE         CLEAR     69  63  81 SE6       30.04S
ANDREWS        CLOUDY    68  67  97 E6        29.97F
ARTESIA        NOT AVBL
BIG SPRING     CLOUDY    73  68  87 E6        29.98S
CARLSBAD       LGT RAIN  68 N/A N/A S12       29.93R
DRYDEN           N/A     75  70  84 E12       29.89F
FORT STOCKTON  CLOUDY    70  66  87 SE8       29.92F
GUAD PASS      HVY RAIN  64  64 100 E5        30.06R VSB 1
HOBBS          LGT RAIN  66  66 100 E9        29.99F
MARFA          CLOUDY    66  64  94 S8        30.04S
MIDLAND AIRPK  NOT AVBL
MIDLAND INTL   CLOUDY    70  68  93 SE13      29.95S
ODESSA         LGT RAIN  70  67  90 SE12      29.96S
PECOS          CLOUDY    70  68  93 E14G20    29.89F
PRESIDIO       FAIR      75  68  77 NE5       29.88F
SEMINOLE       LGT RAIN  67  67  97 CALM      30.00S
SNYDER         CLOUDY    68  67  97 CALM      29.97F
WINK           HVY RAIN  70  69  97 E13       29.91F
$$
...OTHER STATIONS IN TEXAS...

CITY           SKY/WX    TMP DP  RH WIND       PRES   REMARKS
ABILENE        MOCLDY    70  68  93 NE5       29.94S
AMARILLO       MOCLDY    63  62  97 SE6       30.04F
AUSTIN         CLOUDY    76  75  97 NE5       29.89R
BROWNSVILLE    CLEAR     79  77  94 SE3       29.81F FOG
CORPUS CHRISTI PTCLDY    77  75  93 S5        29.83F
DALLAS FTW     MOCLDY    70  65  84 SE5       29.92R
DEL RIO        CLOUDY    78  71  79 E14       29.84S
EL PASO        CLOUDY    67  65  93 N5        29.94F
HOUSTON INT    LGT RAIN  75  74  96 E5        29.87F
LUBBOCK        CLOUDY    66  65  96 SE5       30.01F FOG
SAN ANGELO     CLOUDY    70  69  97 CALM      29.91F
SAN ANTONIO    CLOUDY    76  73  91 CALM      29.89S
WACO           CLOUDY    71  69  93 E5        29.91S
WICHITA FALLS  NOT AVBL
$$
...OTHER LOCATIONS IN NEW MEXICO...

CITY           SKY/WX    TMP DP  RH WIND       PRES   REMARKS
ALAMAGORDO     HVY RAIN  64  64 100 W8        29.99S
ALBUQUERQUE    MOCLDY    67  58  72 N6        30.06F
CANNON AFB     CLOUDY    64  63  94 SE8       30.05S
CLOVIS           N/A     63  61  94 SE5       30.07S
HOLLOMAN AFB   RAIN      64  59  82 CALM      29.97F
ROSWELL        RAIN      67  65  93 NE9       29.98S
RUIDOSO        LGT RAIN  57  57 100 CALM      30.15F VSB 1/4
SANTA FE       CLEAR     58  52  80 CALM      30.13F
TRUTH OR CONSE CLOUDY    63  61  93 NW3       30.01S
TUCUMCARI      CLOUDY    67  61  81 SE6       30.02F
$$

USA.gov is the U.S. government's official web portal to all federal, state and local government web resources and services.